Location: Newark
(49.8348°N, 24.0280°E)
Time: 16:37:16
(UTC+00:00)

Explorer 7 - Pass Details

Date: 23 January 2020
Orbit: 485 x 679 km, 50.3° (Epoch: 16 February)

Event Time Altitude Azimuth Distance (km) Brightness Sun altitude
Rises 01:44:43 0° 280° (W) 2,562 - -41.9°
Reaches altitude 10° 01:46:52 10° 280° (W) 1,692 - -41.6°
Maximum altitude 01:50:41 86° 192° (SSW) 514 - -41.0°
Drops below altitude 10° 01:54:40 10° 104° (ESE) 1,765 - -40.4°
Exits shadow 01:56:13 - 104° (ESE) 2,388 10.7 -40.2°
Sets 01:56:57 0° 104° (ESE) 2,685 11.0 -40.1°
